CAPE
0 0 0 0 0 0 0 0 0 0 0 0 0 0 0 0 0 0 0 0 0 0 0 0 0 0 0 0 0 0 0 0 0 0 0 0 0 0 0 0 0 0 0 0
0 0 0 0 0 0 0 0 0 0 0 0 0 0 0 0 0 0 0 0 0 0 0 0 0 0 0 0 0 0 0 0 0 0 0 0 0 0 0 0 0 0 0 0
0 0 0 0 0 0 0 0 0 0 0 0 0 0 0 0 0 0 0 0 0 0 0 0 0 0 0 0 0 0 0 0 0 0 0 0 0 0 0 0 0 0 0 0
0 0 0 0 0 0 0 0 0 0 0 0 0 0 0 0 0 0 0 0 0 0 0 0 0 0 0 0 0 0 0 0 0 0 0 0 0 0 0 0 0 0 0 0
0 0 0 0 0 0 0 0 0 0 0 0 0 0 0 0 0 0 0 0 0 0 0 0 0 0 0 0 0 0 0 0 0 0 0 0 0 0 0 0 0 0 0 0
0 0 0 0 0 0 0 0 0 0 0 0 0 0 0 0 0 0 0 0 0 0 0 0 0 0 0 0 0 0 0 0 0 0 0 0 0 0 0 0 0 0 0 0
0 0 0 0 0 0 0 0 0 0 0 0 0 0 0 0 0 0 0 0 0 0 0 0 0 0 0 0 0 0 0 0 0 0 0 0 0 0 0 0 0 0 0 0
0 0 0 0 0 0 0 0 0 0 0 0 0 0 0 0 0 0 0 0 0 0 0 0 0 0 0 0 0 0 0 0 0 0 0 0 0 0 0 0 0 0 0 0
0 0 0 0 0 0 0 0 0 0 0 0 0 0 0 0 0 0 0 0 0 0 0 0 0 0 0 0 0 0 0 0 0 0 0 0 0 0 0 0 0 0 0 0
0 0 0 0 0 0 0 0 0 0 0 0 0 0 0 0 0 0 0 0 0 0 0 0 0 0 0 0 0 0 0 0 0 0 0 0 0 0 0 0 0 0 0 0
0 0 0 0 0 0 0 0 0 0 0 0 0 0 0 0 0 0 0 0 0 0 0 0 0 0 0 0 0 0 0 0 0 0 0 0 0 0 0 0 0 0 0 0
0 0 0 0 0 0 0 0 0 0 0 0 0 0 0 0 0 0 0 0 0 0 0 0 0 0 0 0 0 0 0 0 0 0 0 0 0 0 0 0 0 0 0 0
0 0 0 0 0 0 0 0 0 0 0 0 0 0 0 0 0 0 0 0 0 0 0 0 0 0 0 0 0 0 0 0 0 0 0 0 0 0 0 0 0 0 0 0
0 0 0 0 0 0 0 0 0 0 0 0 0 0 0 0 0 0 0 0 0 0 0 0 0 0 0 0 0 0 0 0 0 0 0 0 0 0 0 0 0 0 0 0
0 0 0 0 0 0 0 0 0 0 0 0 0 0 0 0 0 0 0 0 0 0 0 0 0 0 0 0 0 0 0 0 0 0 0 0 0 0 0 0 0 0 0 0
0 0 0 0 0 0 0 0 0 0 0 0 0 0 0 0 0 0 0 0 0 0 0 0 0 0 0 0 0 0 0 0 0 0 0 0 0 0 0 0 0 0 0 0
0 0 0 0 0 0 0 0 0 0 0 0 0 0 0 0 0 0 0 0 0 0 0 0 0 0 0 0 0 0 0 0 0 0 0 0 0 0 0 0 0 0 0 0
2 0 0 0 0 0 0 0 0 0 0 0 0 0 0 0 0 0 0 0 0 0 0 0 0 0 0 0 0 0 0 0 0 0 0 0 0 0 0 0 0 0 0 1
0 1 0 0 0 0 0 0 0 0 0 0 0 0 0 0 0 0 0 0 0 0 0 0 0 0 0 0 0 0 0 0 0 0 0 0 0 0 0 0 0 0 0 0
0 0 0 0 0 0 0 0 0 0 0 0 0 0 0 0 0 0 0 0 0 0 0 0 0 0 0 0 0 0 0 0 0 0 0 0 0 0 0 0 0 0 0 1
0 0 0 0 0 0 0 0 0 0 0 0 0 0 0 0 0 0 0 0 0 0 0 0 0 0 0 0 0 0 0 0 0 0 0 0 0 0 0 0 0 0 0 1
0 0 0 0 0 0 0 0 0 0 0 0 0 0 0 0 0 0 0 0 0 0 0 0 0 0 0 0 0 0 0 0 0 0 0 0 0 0 0 0 0 0 0 0
0 0 0 0 0 0 0 0 0 0 0 0 0 0 0 0 0 0 0 0 0 0 0 0 0 0 0 0 0 0 0 0 0 0 0 0 0 0 0 0 0 0 0 0
0 0 0 0 0 0 0 0 0 0 0 0 0 0 0 0 0 0 0 0 0 0 0 0 0 0 0 0 0 0 0 0 0 0 0 0 0 0 0 0 0 0 0 0
0 0 0 0 0 0 0 0 0 0 0 0 0 0 0 0 0 1 0 0 2 2 0 0 0 0 0 0 0 0 0 0 0 0 0 0 0 0 0 0 0 0 0 0
0 0 0 0 0 0 0 0 0 0 0 0 0 0 0 0 0 1 0 0 1 1 1 0 0 0 0 0 0 0 0 0 0 0 0 0 0 0 0 0 0 0 0 0
CIN
0 0 0 0 0 0 0 0 0 0 0 0 0 0 0 0 0 0 0 0 0 0 0 0 0 0 0 0 0 0 0 0 0 0 0 0 0 0 0 0 0 0 0 0
0 0 0 0 0 0 0 0 0 0 0 0 0 0 0 0 0 0 0 0 0 0 0 0 0 0 0 0 0 0 0 0 0 0 0 0 0 0 0 0 0 0 0 0
0 0 0 0 0 0 0 0 0 0 0 0 0 0 0 0 0 0 0 0 0 0 0 0 0 0 0 0 0 0 0 0 0 0 0 0 0 0 0 0 0 0 0 0
0 0 0 0 0 0 0 0 0 0 0 0 0 0 0 0 0 0 0 0 0 0 0 0 0 0 0 0 0 0 0 0 0 0 0 0 0 0 0 0 0 0 0 0
0 0 0 0 0 0 0 0 0 0 0 0 0 0 0 0 0 0 0 0 0 0 0 0 0 0 0 0 0 0 0 0 0 0 0 0 0 0 0 0 0 0 0 0
0 0 0 0 0 0 0 0 0 0 0 0 0 0 0 0 0 0 0 0 0 0 0 0 0 0 0 0 0 0 0 0 0 0 0 0 0 0 0 0 0 0 0 0
0 0 0 0 0 0 0 0 0 0 0 0 0 0 0 0 0 0 0 0 0 0 0 0 0 0 0 0 0 0 0 0 0 0 0 0 0 0 0 0 0 0 0 0
0 0 0 0 0 0 0 0 0 0 0 0 0 0 0 0 0 0 0 0 0 0 0 0 0 0 0 0 0 0 0 0 0 0 0 0 0 0 0 0 0 0 0 0
0 0 0 0 0 0 0 0 0 0 0 0 0 0 0 0 0 0 0 0 0 0 0 0 0 0 0 0 0 0 0 0 0 0 0 0 0 0 0 0 0 0 0 0
0 0 0 0 0 0 0 0 0 0 0 0 0 0 0 0 0 0 0 0 0 0 0 0 0 0 0 0 0 0 0 0 0 0 0 0 0 0 0 0 0 0 0 0
0 0 0 0 0 0 0 0 0 0 0 0 0 0 0 0 0 0 0 0 0 0 0 0 0 0 0 0 0 0 0 0 0 0 0 0 0 0 0 0 0 0 0 0
0 0 0 0 0 0 0 0 0 0 0 0 0 0 0 0 0 0 0 0 0 0 0 0 0 0 0 0 0 0 0 0 0 0 0 0 0 0 0 0 0 0 0 0
0 0 0 0 0 0 0 0 0 0 0 0 0 0 0 0 0 0 0 0 0 0 0 0 0 0 0 0 0 0 0 0 0 0 0 0 0 0 0 0 0 0 0 0
0 0 0 0 0 0 0 0 0 0 0 0 0 0 0 0 0 0 0 0 0 0 0 0 0 0 0 0 0 0 0 0 0 0 0 0 0 0 0 0 0 0 0 0
0 0 0 0 0 0 0 0 0 0 0 0 0 0 0 0 0 0 0 0 0 0 0 0 0 0 0 0 0 0 0 0 0 0 0 0 0 0 0 0 0 0 0 0
0 0 0 0 0 0 0 0 0 0 0 0 0 0 0 0 0 0 0 0 0 0 0 0 0 0 0 0 0 0 0 0 0 0 0 0 0 0 0 0 0 0 0 0
0 0 0 0 0 0 0 0 0 0 0 0 0 0 0 0 0 0 0 0 0 0 0 0 0 0 0 0 0 0 0 0 0 0 0 0 0 0 0 0 0 0 0 0
-2 -1 -2 0 0 0 0 0 0 0 0 0 0 0 0 0 0 0 0 0 0 0 0 0 0 0 0 0 0 0 0 0 0 0 0 0 0 0 0 0 0 0 0 0
0 -3 0 0 0 0 0 0 0 0 0 0 0 0 0 0 0 0 0 0 0 0 0 0 0 0 0 0 0 0 0 0 0 0 0 0 0 0 0 0 0 0 0 0
0 -2 0 0 0 0 0 0 0 0 0 0 0 0 0 0 0 0 0 0 0 0 0 0 0 0 0 0 0 0 0 0 0 0 0 0 0 0 0 0 0 0 0 0
0 0 0 0 0 0 0 0 0 0 0 0 0 0 0 0 0 0 0 0 0 0 0 0 0 0 0 0 0 0 0 0 0 0 0 0 0 0 0 0 0 0 0 0
0 0 0 0 0 0 0 0 0 0 0 0 0 0 0 0 0 0 0 0 0 0 0 0 0 0 0 0 0 0 0 0 0 0 0 0 0 0 0 0 0 0 0 0
0 0 0 0 0 0 0 0 0 0 0 0 0 0 0 0 0 0 0 0 0 0 0 0 0 0 0 0 0 0 0 0 0 0 0 0 0 0 0 0 0 0 0 0
0 0 0 0 0 0 0 0 0 0 0 0 0 0 0 0 0 0 0 0 0 0 0 0 0 0 0 0 0 0 0 0 0 0 0 0 0 0 0 0 0 0 0 0
0 0 0 0 0 0 0 0 0 0 0 0 0 0 0 -1 0 -1 -3 0 0 -1 0 -1 0 0 0 0 0 0 0 0 0 0 0 0 0 0 0 0 0 0 0 0
0 0 0 0 0 0 0 0 0 0 0 0 0 0 0 0 -1 -2 0 0 0 0 0 -1 0 0 0 0 0 0 0 0 0 0 0 0 0 0 0 0 0 0 0 0
Wind_Speed
18 17 18 19 19 19 20 23 26 24 25 30 29 36 41 36 32 39 38 35 33 32 27 22 20 17 16 16 14 14 13 15 16 19 21 23 24 24 24 26 28 29 30 31
17 18 19 18 20 20 22 25 27 28 26 32 34 44 42 33 26 23 26 28 29 28 23 21 18 14 13 13 13 12 13 14 15 17 19 21 22 23 25 26 28 29 29 30
16 17 19 18 21 23 23 25 27 29 33 26 35 34 27 26 26 24 25 27 28 25 20 15 11 10 10 11 11 12 13 13 15 17 20 22 24 26 27 28 28 28 29 31
17 19 18 19 21 23 26 23 25 28 31 32 30 35 33 28 29 26 24 24 25 21 17 14 11 9 9 10 11 12 13 15 17 19 22 23 25 27 26 27 27 29 29 31
17 18 19 20 20 21 22 22 24 25 27 29 28 28 28 27 27 26 25 24 23 21 18 14 12 10 10 10 11 12 14 17 20 22 22 23 24 25 25 27 29 30 31 33
16 16 18 18 18 20 20 22 25 23 24 26 24 26 27 27 25 26 26 24 22 21 18 14 12 10 10 10 10 12 17 21 23 22 21 20 22 24 27 28 31 32 33 34
17 17 17 18 18 20 22 25 26 24 24 24 22 27 24 24 23 27 28 27 22 20 16 13 10 9 7 7 10 16 20 23 24 23 21 21 21 23 26 29 31 33 34 35
16 16 18 20 19 21 23 21 22 25 25 30 25 22 22 24 25 24 22 24 22 20 18 16 13 10 9 11 15 18 22 25 25 23 21 20 20 22 25 27 28 31 33 34
17 16 17 19 19 20 20 22 19 22 24 27 23 22 25 23 25 30 25 25 23 18 16 15 15 15 15 16 18 22 24 25 24 22 20 19 20 22 24 25 26 29 31 32
15 19 18 18 17 20 19 17 23 23 27 30 28 27 22 27 29 31 30 31 30 27 24 23 21 21 20 22 24 25 24 24 24 21 19 19 20 21 22 24 26 28 29 30
16 19 19 19 18 19 20 20 20 21 21 29 36 27 18 22 30 33 35 34 33 31 30 29 27 23 22 24 24 26 28 27 25 23 20 20 20 20 21 23 25 26 28 29
19 20 23 22 20 18 18 19 17 23 27 25 32 39 20 20 24 28 38 41 40 37 40 37 35 33 27 25 27 30 29 29 26 23 22 20 20 20 21 23 24 25 27 27
16 22 28 27 23 21 20 18 18 22 26 29 36 33 18 25 32 42 47 48 49 50 47 44 43 40 36 32 30 31 34 29 27 25 23 22 21 20 21 22 23 24 25 26
20 21 23 29 30 26 27 24 21 24 33 36 31 37 35 38 44 49 51 44 46 46 48 48 48 47 46 43 40 36 33 34 30 28 25 24 21 19 20 21 22 23 24 25
23 29 26 28 30 31 33 32 28 29 31 35 36 39 42 44 48 48 46 48 50 48 46 47 48 48 49 48 46 42 39 35 32 30 27 26 21 19 19 20 21 21 23 24
24 31 32 39 34 34 38 34 31 30 32 36 38 43 41 40 40 46 49 50 48 45 45 47 48 49 50 50 48 47 44 41 36 32 28 23 20 19 19 19 20 20 21 23
26 29 34 41 35 41 47 34 29 31 29 33 41 39 39 46 48 48 52 49 44 47 49 49 50 50 51 53 51 48 46 39 31 27 23 19 19 19 18 17 18 18 19 21
27 28 30 39 39 46 35 28 29 34 33 30 36 40 43 47 48 47 47 42 46 52 55 54 53 52 53 54 53 49 42 34 27 22 22 20 18 19 17 17 17 16 16 18
23 26 33 37 38 45 43 35 32 37 39 32 39 45 48 50 56 52 44 44 52 55 53 52 50 50 52 53 53 48 42 31 27 25 24 22 19 18 17 16 15 15 13 15
23 23 27 33 40 46 35 28 30 32 49 31 46 53 57 58 62 58 49 51 55 53 51 50 48 48 48 51 49 44 38 31 27 25 25 23 20 18 16 15 14 13 11 13
29 28 29 33 39 41 32 34 30 43 44 48 49 51 52 54 50 56 55 54 49 50 50 51 46 47 49 48 44 41 36 32 31 28 25 24 22 19 18 16 15 12 11 14
30 31 33 32 39 47 28 30 39 39 47 49 49 48 51 51 52 51 54 52 52 51 52 47 48 51 49 45 43 41 39 33 31 29 28 26 23 22 20 18 17 15 14 17
35 29 33 30 36 30 29 35 39 53 47 46 47 47 47 51 53 52 52 53 52 50 49 44 44 45 47 46 40 43 42 36 31 28 29 26 25 24 22 19 19 18 18 19
31 28 37 40 37 36 38 43 46 40 41 42 43 47 48 50 51 51 50 51 52 51 48 46 40 32 52 48 44 43 43 37 34 31 28 26 26 25 23 21 20 17 20 20
32 33 39 42 40 43 39 40 40 40 39 41 43 44 45 46 49 50 50 52 51 49 50 45 38 35 54 50 48 44 42 37 37 34 30 27 25 25 25 24 22 20 24 21
31 36 38 43 39 42 45 40 37 39 41 42 44 49 47 46 48 49 51 51 50 53 51 45 37 37 48 53 52 46 41 36 34 36 32 29 27 26 26 25 27 26 27 24
Wind_Direction
324 322 317 319 321 319 316 311 307 311 316 310 309 298 286 304 306 295 295 298 297 292 290 290 289 283 282 285 285 287 286 294 301 306 307 308 308 311 312 314 316 319 319 320
325 319 321 322 321 318 316 311 308 309 316 311 307 292 295 308 314 317 313 309 307 307 303 288 286 280 274 281 286 288 291 296 301 307 311 313 314 315 315 316 317 319 320 320
328 326 326 325 320 316 316 313 312 310 311 319 310 308 315 318 317 317 317 316 315 314 311 302 292 284 282 282 285 291 297 299 303 307 311 312 313 313 314 315 317 320 321 321
337 332 330 326 321 320 312 321 318 315 314 310 322 304 311 318 315 318 319 322 324 325 322 313 301 292 289 292 297 301 303 305 308 310 309 309 309 310 314 317 320 320 323 323
336 334 331 329 328 329 323 329 325 323 318 317 319 315 317 321 321 324 321 323 326 329 326 319 308 303 302 302 304 306 309 310 311 311 310 309 310 313 316 319 319 321 323 323
355 354 344 339 341 341 339 331 328 329 325 318 326 325 321 323 326 326 328 327 328 331 331 328 324 317 309 309 309 312 312 312 314 315 313 311 311 313 315 317 319 320 322 323
5 3 1 352 348 348 341 333 324 325 327 324 339 331 333 338 338 329 324 322 329 331 331 329 326 321 313 307 312 315 315 313 314 314 313 312 313 315 316 318 319 321 322 323
1 360 349 341 351 344 343 346 337 324 325 319 336 335 349 350 343 343 346 335 333 330 325 321 317 313 305 306 313 317 318 316 316 314 314 314 315 317 319 320 322 323 323 325
351 350 352 349 350 352 350 345 354 335 333 323 337 347 350 0 354 344 348 340 340 339 334 326 315 308 300 301 308 312 315 317 316 315 316 315 316 317 320 323 324 325 327 328
350 336 342 344 352 346 348 1 338 338 322 317 324 337 348 349 345 344 346 341 334 333 330 324 315 307 300 300 305 309 313 316 318 316 313 313 314 317 321 324 325 327 330 331
345 334 332 336 339 337 340 338 340 340 336 322 313 331 358 346 338 332 328 333 335 337 334 328 320 309 302 301 303 306 308 310 313 313 313 311 314 317 320 323 326 330 332 334
331 329 320 324 332 336 333 333 336 327 326 325 318 313 347 344 350 345 326 322 324 325 320 319 317 314 303 290 296 302 305 304 306 307 309 308 310 314 318 322 326 331 333 336
333 325 318 317 324 328 324 329 327 326 322 315 311 319 351 334 331 324 319 318 315 312 313 314 313 311 306 300 289 287 296 300 301 300 301 304 304 309 314 320 326 331 335 338
328 318 312 307 312 318 313 315 317 314 310 311 295 304 312 315 317 317 316 320 319 318 315 313 312 311 307 303 296 293 285 287 292 290 291 295 295 302 310 318 325 331 336 339
320 312 310 307 308 307 305 304 303 298 300 299 292 304 315 316 317 317 319 318 316 317 316 316 316 315 312 307 302 296 291 288 284 282 282 286 286 297 307 315 322 330 335 339
316 311 313 308 308 306 303 303 300 295 296 296 298 301 313 320 322 320 320 319 318 319 318 317 317 317 316 313 305 300 295 292 285 275 272 274 279 291 302 312 320 328 335 339
312 312 313 307 315 312 306 307 302 307 307 306 306 313 321 318 319 320 319 317 316 317 316 316 315 315 315 313 309 302 296 294 289 277 265 263 273 285 296 308 318 325 335 341
307 310 310 308 313 305 314 323 321 315 315 312 311 315 318 318 317 317 318 315 314 314 313 313 312 311 312 312 309 304 296 290 282 272 265 265 270 281 291 301 312 322 336 342
292 299 307 307 307 307 306 314 317 316 313 318 318 317 318 319 317 315 317 313 312 311 310 310 310 310 309 311 310 303 291 283 275 268 264 265 269 276 283 293 306 317 332 340
314 296 295 306 306 307 316 321 325 321 309 320 320 318 318 318 312 314 320 318 316 314 310 309 308 309 309 310 311 302 290 277 270 266 266 266 267 271 275 287 299 309 323 335
314 309 291 296 301 308 315 320 323 310 313 320 320 318 317 314 313 314 317 317 318 317 315 311 305 304 305 306 307 297 287 275 272 271 269 266 267 269 274 282 294 297 309 320
310 310 307 305 303 304 320 321 316 318 317 317 319 319 317 316 315 315 315 316 317 316 316 313 308 304 298 299 298 284 279 277 275 270 267 265 266 268 271 276 285 288 297 301
308 306 309 305 307 316 316 317 318 319 316 318 318 319 318 317 317 316 315 315 315 315 314 314 309 306 292 285 288 272 271 271 273 270 265 266 264 266 268 272 277 279 283 289
311 309 305 309 313 307 310 313 316 317 316 318 319 319 319 317 317 316 315 315 313 314 313 314 310 302 278 274 274 266 268 268 267 266 265 264 263 264 265 270 271 273 275 279
308 312 309 303 307 308 312 316 317 316 316 318 319 320 318 317 317 316 315 314 312 311 311 310 304 297 275 272 268 265 266 265 262 260 264 262 263 262 263 266 267 270 268 274
308 306 305 304 311 312 314 318 319 319 320 320 321 322 321 319 318 318 315 315 313 310 308 305 299 294 286 270 261 260 263 262 258 258 258 258 260 261 262 264 263 266 265 269